Tracking 29528 objects as of 12-Sep-2024
HD Live streaming from Space Station
objects crossing your sky now

ARIANE 5 DEB (SYLDA)

Track ARIANE 5 DEB (SYLDA) now!
10-day predictions


NORAD ID: 29164
Int'l Code: 2006-020C
Perigee: 274.7 km
Apogee: 7,208.2 km
Inclination: 6.8 °
Period: 168.7 minutes
Semi major axis: 10112 km
RCS: 17.7393 m2 (large)
Launch date: May 27, 2006
Source: France (FR)
Launch site: FRENCH GUIANA (FRGUI)

Note: This is SATELLITE DEBRIS
Your satellite tracking list
Your tracking list is empty




NASA's NSSDC Master Catalog

Two Line Element Set (TLE):
1 29164U 06020C   24256.30446736  .00209659  00000-0  91138-2 0  9997
2 29164   6.8179 285.5168 3428180 210.1665 124.7018  8.53722103339668
Source of the keplerian elements: AFSPC